Regional Weather Roundup
Issued by NWS Upton, NY

Current Version | Previous Version | Text Only | Print | Product List | Glossary Off
Versions: 1 2 3 4 5 6 7 8 9 10 11 12 13 14 15 16 17 18 19 20 21 22 23 24 25 26 27 28

000
ASUS41 KOKX 231009
RWROKX

REGIONAL WEATHER ROUNDUP
NATIONAL WEATHER SERVICE NEW YORK NY
600 AM EDT TUE MAY 23 2017

NOTE: "FAIR" INDICATES FEW OR NO CLOUDS BELOW 12,000 FEET WITH NO
SIGNIFICANT WEATHER AND/OR OBSTRUCTIONS TO VISIBILITY.

NYZ071-072-176-178-NJZ106-104-231100-
NEW YORK CITY METRO AREA

CITY           SKY/WX    TMP DP  RH WIND       PRES   REMARKS
Central Park   CLOUDY    57  55  93 CALM      29.96S
Wall St Helipt MOSUNNY   59  55  87 NE7       29.95R
Bronx Bot Gard   N/A     55  52  88 NW2       29.94F
LaGuardia APRT CLOUDY    59  54  83 NE6       29.94R
Kennedy INTL   MOCLDY    59  57  93 N6        29.95R
Breezy Point     N/A     57 N/A N/A N5          N/A
Newark/Liberty MOCLDY    57  55  93 N9        29.94R
Teterboro      PTCLDY    58  55  90 CALM      29.93S
$$

NYZ177-179-078>081-231100-
LONG ISLAND NEW YORK

CITY           SKY/WX    TMP DP  RH WIND       PRES   REMARKS
Jones Beach      N/A     57 N/A N/A N8          N/A
Matinecock PT  NOT AVBL
Farmingdale    PTCLDY    56  54  93 N6        29.95R VSB 1/4
MacArthur/ISP  CLOUDY    55  54  96 N8        29.93R
Shirley        CLOUDY    55  55 100 N6        29.94R
Mt Sinai Harb    N/A     55 N/A N/A N5          N/A
Westhampton    CLOUDY    54  52  93 N6        29.95S
East Hampton     N/A     53  52  97 N3        29.93R
Montauk          N/A     54  54 100 N5        29.94
$$

NYZ052-065-067-231100-
HUDSON VALLEY

CITY           SKY/WX    TMP DP  RH WIND       PRES   REMARKS
White Plains   PTCLDY    54  50  86 N3        29.94R
Larchmont Harb   N/A     57 N/A N/A N3          N/A
Croton O-T Hud   N/A     54 N/A N/A MISG        N/A
Newburgh       NOT AVBL
Montgomery     CLOUDY    54  53  97 CALM      29.96R FOG
Poughkeepsie   CLOUDY    50  49  96 CALM      29.95S FOG
Albany         CLOUDY    46  44  93 CALM      29.97R
$$

NJZ001-105-106-008-010-013-015-019>022-104-231100-
NEW JERSEY

CITY           SKY/WX    TMP DP  RH WIND       PRES   REMARKS
Newark/Liberty MOCLDY    57  55  93 N9        29.94R
Teterboro      PTCLDY    58  55  90 CALM      29.93S
Caldwell       CLOUDY    57  54  89 CALM      29.95R FOG
Somerville     FOG       52  51  97 CALM      29.94R VSB 1/4
Linden           N/A     58  56  92 CALM      29.95R
Perth Amboy      N/A     59 N/A N/A MISG        N/A
Sussex         CLOUDY    53  50  89 CALM      29.97R
Andover          N/A     52  50  93 CALM      29.96R
Trenton        MOCLDY    56  55  97 NW3       29.96R FOG
Millville      CLOUDY    59  59 100 N3        29.94R FOG
Atlantic City  MOCLDY    60  57  89 N10       29.94R FOG
Wrightstown    NOT AVBL
Toms River     CLOUDY    57  56  96 N3        29.95R FOG
Belmar         MOCLDY    58  57  97 N5        29.96R FOG
$$

PAZ047>061-062-071-231100-
EASTERN PENNSYLVANIA

CITY           SKY/WX    TMP DP  RH WIND       PRES   REMARKS
Philadelphia   CLOUDY    61  57  87 N10       29.95R
Allentown      MOCLDY    51  49  92 CALM      29.96R FOG
Scranton       PTCLDY    50  44  80 E6        29.97S
$$

CTZ002-004>006-009-010-012-RIZ004-006-007-MAZ004-011-015-231100-
SOUTHERN NEW ENGLAND
 IN CT

CITY           SKY/WX    TMP DP  RH WIND       PRES   REMARKS
Bradley INTL   FOG       50  50 100 NW3       29.96R VSB 1/8
Hartford       CLOUDY    52  52 100 CALM      29.96R FOG
Danbury        CLOUDY    48  48 100 CALM      29.96R FOG
Wtrbury/Oxford MOCLDY    48  45  87 NE6       29.97R
Bridgeport     CLOUDY    57  51  80 N6        29.94R
Meriden        PTCLDY    50  50 100 N3        29.95R
New Haven      MOCLDY    54  50  86 N8        29.94R
Chester          N/A     54  54 100 N7        29.93S
Groton         CLOUDY    54  52  93 CALM      29.93R
Wilimantic     CLOUDY    52  51  97 CALM      29.94R

 IN RI

CITY           SKY/WX    TMP DP  RH WIND       PRES   REMARKS
Providence     CLOUDY    54  54 100 N7        29.93R
Block Island   CLOUDY    55  54  96 N3        29.93R
Westerly       CLOUDY    55  54  96 CALM      29.94R
 IN MA

CITY           SKY/WX    TMP DP  RH WIND       PRES   REMARKS
Boston         CLOUDY    53  51  93 N7        29.93S
Worcester      CLOUDY    49  47  93 NW6       29.93R
Westfield      FOG       47  47 100 W3        29.94S VSB 1/4
Provincetown   CLOUDY    53  52  96 N6        29.92R
Nantucket      FOG       55  54  96 W5        29.90R VSB 1/4
$$

ANZ330-335-338-340-345-350-353-355-231100-
COASTAL MARINE OBSERVATIONS


STATION/POSITION TIME  SKY/WX   TEMP    WIND        PRES    VSBY  WAVE
                                AIR SEA DIR/SP/G                  HT/PER
                 (UTC)          (F)     (DEG/KT/KT) (MB)    (MI)  (FT/S)
NY HARB ENTRANCE 0850            58 57  360/  6/  6 1013.0          2/ 6
20 S FIRE ISLAND 0950            56 55   20/ 14/ 14 1012.6          3/ 5
GREAT SOUTH BAY  0930            58 64   10/  8/ 12   N/A
23 SSW MONTAUK P 0850            55 55              1013.0          3/ 6
15 E BARNEGAT LI 0930               57                N/A           3/ 5
HUDSON CANYON    0850            56 54   10/  8/ 10 1012.5          3/ 5
KINGS POINT      0936            58 57   60/  5/  9 1013.7
EXECUTION ROCKS  0945            58                   N/A
CENTRAL LI SOUND 0930            56     340/  4/  6   N/A           1
EASTERN LI SOUND NOT AVBL
ROBBINS REEF     0942            60      10/ 11/ 13 1014.3
$$


>>>>>>>>>>>>>>>>>>>>>>>>>>>> KEY <<<<<<<<<<<<<<<<<<<<<<<<<<<
>                                                          <
>     SKY/WX - Sky Condition/Present Weather               <
>     TMP    - Temperature in Fahrenheit                   <
>     DP     - Dew Point in Fahrenheit                     <
>     RH     - Relative Humidity in Percent                <
>     WIND   - Direction (from) and Speed in MPH           <
>     PRES   - Mean Sea Level Pressure (inches of Hg)      <
>     WCI    - Wind Chill Index                            <
>     VSB    - VISIBILITY IN MILES                         <
>     HX     - HEAT INDEX                                  <
>     TC     - TEMPERATURE IN CELSIUS                      <
>     VRB    - VARIABLE WIND DIRECTION                     <
>                                                          <
>>>>>>>>>>>>>>>>>>>>>>>>>>>> KEY <<<<<<<<<<<<<<<<<<<<<<<<<<<




USA.gov is the U.S. government's official web portal to all federal, state and local government web resources and services.